THOR ABLESTAR R/B, 669

Orbit data source: Space-Track

THOR ABLESTAR R/B, 669 is space debris in LEO originally from a launch on Sat, 28 Sep 1963 UTC launched from the Air Force Western Test Range (AFWTR). Debris objects in space refer to the collection of defunct objects orbiting the Earth. Examples of debris include non-operational satellites, rocket bodies, and fragments generated from explosions, collisions, or faulty payload assembly.

Loading next visibility...
Identifier
669, 1963-038A
Orbit
LEO
Last TLE update
12 hours ago
Origin
Manufacturer
Aerojet
Mission
Spacecraft
Bus & Motor
ABLESTAR, Unknown motor
Mass
~600 kg wet, 600 kg dry
Launch date (UTC)
1963-09-28 (62 years ago)
Launch vehicle
Unknown
Launch site
Air Force Western Test Range (AFWTR)
Object type
Payload
Rocket body
Debris
Shape & HBR
Cyl, 4.8 m
Radar Cross Section
6.048 m², Large (>1 m²)

Expand to show TLE details & history

TLE from 12 hours ago
0 THOR ABLESTAR R/B
1 00669U 63038A   25128.73264934  .00000063  00000-0  89435-4 0  9999
2 00669  89.9867 334.9359 0025723 193.5137 211.6824 13.46103859 25296
Epoch: 2025-05-08T17:35Z
Definitive object data (Epoch: 2025-05-08T17:35:00.902Z)
Latitude
45.13005°
Longitude
-155.60348°
Altitude
1,109.876 km
Speed
7.294 km/s
True Right ascension
22h 19m 47s
True Declination
44° 57' 58"
Sunlit
Object was in daylight at TLE epoch
Visualization TLE readout
Latitude
-34.83198°
Longitude
24.39179°
Altitude
1,082.064 km
Speed
7.319 km/s
Apparent Right ascension
06h 49m 35s
Apparent Declination
-62° 40' 25"
Sunlit
Object is in daylight
Visualization observer readout
Local Sidereal Time
13:16:11
Azimuth
215.162° SW
Elevation
-37.65°
Doppler factor
1
Orbital elements
Apogee altitude
1,102.877 km
Perigee altitude
1,064.489 km
Semi-major axis
7,461.82 km
Eccentricity
0.0025723
Inclination
89.9867°
RAAN
334.9359°
Arg. of periapsis
193.5137°
True anomaly
211.52801°
Mean anomaly
211.6824°
Eccentric anomaly
211.60516°
Mean motion
3.36725 °/min
BSTAR
0.000089435
Orbital period
106.91 mins
Loading maneuver chart data...
Loading SW <> Apogee altitude chart data...

THOR ABLESTAR R/B Visibility forecast

Observer location: undefined°, undefined°

Span
Click to sort rows by Start time (UTC) header in descending order
Start Az.
Max El. time (UTC)
Max El. Az.
Max El.
End time (UTC)
End Az.
11 mins2025-05-09 13:05:34.613Z137.878° SSE2025-05-09 13:11:34.613Z73.859° E28.893°2025-05-09 13:16:34.613Z19.625° NNE
10 mins2025-05-09 14:53:34.613Z215.48° SW2025-05-09 14:57:34.613Z266.101° W32.458°2025-05-09 15:03:34.613Z339.965° N
4 mins2025-05-10 00:20:34.613Z58.43° ENE2025-05-10 00:22:34.613Z77.774° E13.448°2025-05-10 00:24:34.613Z96.755° ESE
12 mins2025-05-10 02:04:34.613Z1.267° NNE2025-05-10 02:09:34.613Z345.305° N44.563°2025-05-10 02:16:34.613Z185.621° SSW
|